Weather in Kulikovka

Russia / Penza Oblast     52°47′56″N   43°24′06″E
temp.,
°C
wind,
m/s
gust,
m/s
humid.,
%
clouds,
%
prec.,
mm/h
press.,
hPa
HPBL,
m
7 march, sun
sun700:00−10nw51096100 0.3 1015230
03:00−15wnw459697 0.3 101573
06:00−15wsw349759 0.0 101669
09:00−12sw599672 0.1 1015233
12:00−8sw7139095 0.0 1012567
15:00−5sw9158998 0.1 10081037
18:00−4sw101880100 0.1 10051107
21:00−4sw111986100 0.2 10011042
8 march, mon
mon800:00−3sw111894100 0.8 9981064
03:00−4w91682100 1.3 1000758
06:00−8wsw6138728 0.0 1002307
09:00−7wsw6128814 0.0 1003415
12:00−3wsw6108640 0.0 1003902
15:00−2wsw6109171 0.4 10031044
18:00−6wsw498678 0.1 1003186
21:00−9w4109251 0.2 1006202
9 march, tue
tue900:00−13w34940 0.0 100861
03:00−15wnw34960 0.0 100927
06:00−17wnw339819 0.0 101121
09:00−14nw249756 0.0 1012123
12:00−11nw359379 0.0 1013272
15:00−10wnw469185 0.0 1014470
18:00−12wnw3695100 0.1 1014126
21:00−13nw489699 0.1 1017241
10 march, wed
wed1000:00−17nw469888 0.1 1018109
03:00−19nw3410092 0.1 101975
06:00−22nw46100100 0.0 102196
09:00−21nw4998100 0.1 1022267
12:00−19nw479497 0.0 1024365
15:00−17nw579097 0.0 1024536
18:00−20nw3497100 0.0 102540
21:00−23nnw349774 0.0 102834
11 march, thu
thu1100:00−25nw33990 0.0 102922
03:00−26nw23980 0.0 103020
06:00−26wnw23980 0.0 103120
09:00−22wnw34930 0.0 1031125
12:00−17w34860 0.0 1031246
15:00−15wsw35850 0.0 1031274
18:00−18wsw34910 0.0 103122
21:00−20sw33850 0.0 103220